Regional Weather Roundup
Issued by NWS Kansas City/Pleasant Hill, MO

Home | Current Version | Previous Version | Text Only | Print | Product List | Glossary On
Versions: 1 2 3 4 5 6 7 8 9 10 11 12 13 14 15 16 17 18 19 20 21 22 23 24 25 26 27
000
ASUS43 KEAX 202110
RWREAX

WEATHER ROUNDUP FOR EASTERN KANSAS AND NORTHWEST MISSOURI
NATIONAL WEATHER SERVICE KANSAS CITY/PLEASANT HILL MO
400 PM CDT FRI APR 20 2018

KSZ040-057-103>105-MOZ028-029-037-043-202200-
...KANSAS CITY METROPOLITAN AREA...

CITY           SKY/WX    TMP DP  RH WIND       PRES   REMARKS
K.C. INTL      MOSUNNY   61  27  27 E16       30.29F
K.C. DOWNTOWN  CLOUDY    64  27  24 E10G23    30.27F
LEES SUMMIT    CLOUDY    63  27  25 SE14G28   30.29F
OLATHE - IXD   SUNNY     63  26  24 E14       30.28F
OLATHE - OJC   SUNNY     60  27  28 SE13G22   30.27F
LAWRENCE       SUNNY     64  25  22 SE17G28   30.26F

$$

MOZ001>008-011>017-020>025-030>033-038>040-044>046-053-054-202200-
...NORTHERN AND CENTRAL MISSOURI...

CITY           SKY/WX    TMP DP  RH WIND       PRES   REMARKS
ST. JOSEPH     SUNNY     62  28  27 SE18      30.28F
MOSBY          PTCLDY    63  23  22 SE14G21   30.29F
WARRENSBURG    CLOUDY    63  27  25 E13       30.30F
WHITEMAN AFB   PTSUNNY   63  28  26 S8        30.27F
CLINTON        MOSUNNY   64  28  25 E12       30.30F
SEDALIA        MOSUNNY   63  27  25 E14       30.32F
WARSAW         NOT AVBL
CHILLICOTHE      N/A     63  28  26 SE13G20   30.33F
KIRKSVILLE     CLOUDY    60  23  24 E9G21     30.36F

$$

MOZ041-047>049-056>058-063>065-088>090-097-202200-
...EASTERN AND SOUTHERN MISSOURI...

CITY           SKY/WX    TMP DP  RH WIND       PRES   REMARKS
ST. LOUIS INTL CLOUDY    62  24  23 E13       30.39F
SPIRIT OF STL  PTSUNNY   63  22  20 E13G28    30.37F
COLUMBIA       CLOUDY    62  19  19 E8G18     30.34F
JEFFERSON CITY CLOUDY    63  14  15 E13       30.34F
ROLLA          CLOUDY    65  17  15 E10G18    30.33F
OSAGE BEACH    CLOUDY    65  25  22 E7        30.32F
SPRINGFIELD    CLOUDY    64  26  23 SE14G23   30.27F
BRANSON        PTSUNNY   63  27  25 SE9G21    30.29F
JOPLIN         SUNNY     64  29  26 SE14      30.24F
WEST PLAINS    SUNNY     65  17  15 E12G24    30.31F

$$

IAZ060-094-KSZ022-034>040-054-083-096-NEZ052-066-093-202200-
...KANSAS...SOUTHEAST NEBRASKA AND IOWA...

CITY           SKY/WX    TMP DP  RH WIND       PRES   REMARKS
TOPEKA         CLOUDY    63  30  28 SE18G25   30.24F
MANHATTAN      CLOUDY    65  29  25 SE15G24   30.21F
EMPORIA        CLOUDY    64  28  25 SE17G26   30.19F
CHANUTE        CLOUDY    67  29  24 E13       30.22F
WICHITA        CLOUDY    65  31  28 SE25G31   30.14F
OMAHA          CLOUDY    62  26  25 E13G24    30.29F
LINCOLN        CLOUDY    62  26  25 SE14      30.27F
FALLS CITY     CLOUDY    62  26  25 SE16G25   30.25F
LAMONI         CLOUDY    59  28  30 E9G23     30.32F
DES MOINES     CLOUDY    59  27  29 SE9       30.36F

$$





USA.gov is the U.S. government's official web portal to all federal, state and local government web resources and services.